Regional Weather Roundup
Issued by NWS

Home | Current Version | Previous Version | Graphics & Text | Print | Product List | Glossary Off
Versions: 1 2 3 4 5 6 7 8 9 10 11 12 13 14 15 16 17 18 19 20 21 22 23 24 25 26 27 28 29 30 31 32 33 34 35 36 37 38 39 40 41 42 43 44 45 46 47 48 49 50

000
ASUS43 KMKX 101259
RWRWI

WISCONSIN REGIONAL WEATHER ROUNDUP
NATIONAL WEATHER SERVICE MILWAUKEE/SULLIVAN WI
700 AM CST WED FEB 10 2016

NOTE: "FAIR" INDICATES FEW OR NO CLOUDS BELOW 12,000 FEET WITH NO
SIGNIFICANT WEATHER AND/OR OBSTRUCTIONS TO VISIBILITY.

WIZ001-002-006>008-014>016-023>028-101400-
NORTHWEST WISCONSIN

CITY           SKY/WX    TMP DP  RH WIND       PRES   REMARKS
SUPERIOR ARPT  CLOUDY    -6 -12  76 N3        30.15S
ASHLAND        CLOUDY     4  -3  73 NW10      30.10R WCI -11
HAYWARD        CLOUDY     2  -4  76 N3        30.05R
SIREN          CLOUDY   -12 -18  76 CALM      30.11S
CUMBERLAND     PTCLDY    -8 -13  77 N6        30.06S WCI -21
RICE LAKE      CLOUDY    -3  -8  80 W5        30.09R WCI -14
CHETEK         CLOUDY    -3  -8  81 W3        30.08R
LADYSMITH      CLOUDY     3  -3  75 NW5       30.05R WCI  -6
EAU CLAIRE     NOT AVBL
MENOMONIE      PTCLDY    -3 -10  72 W6        30.10S WCI -15
NEW RICHMOND   PTCLDY    -5 -11  78 CALM      30.09F
OSCEOLA        PTCLDY    -1  -6  79 CALM      30.14S
$$

WIZ003>005-009-010-017-018-101400-
NORTH CENTRAL WISCONSIN

CITY           SKY/WX    TMP DP  RH WIND       PRES   REMARKS
MANITOWISH WTR FLURRIES   2  -3  79 N3        29.94R
ARBOR VITAE    LGT SNOW   4  -1  80 NW3       29.93R
WOODRUFF       LGT SNOW   4  -1  80 NW3       29.93R
RHINELANDER    CLOUDY     4  -3  73 N6        29.93R WCI  -7
EAGLE RIVER    CLOUDY     3  -5  69 N8        29.92R WCI -11
LAND O LAKES   FLURRIES   3  -2  80 NW8       29.93R WCI -11
PHILLIPS       CLOUDY    -1  -6  79 CALM      29.97R
TOMAHAWK       CLOUDY     3  -3  77 NW7       29.96R WCI -10
MEDFORD        CLOUDY    -3  -6  87 NW5       29.96R WCI -14
MERRILL        CLOUDY     5  -2  73 N8        29.97R WCI  -9
$$

WIZ029-030-035-036-043>047-101400-
CENTRAL WISCONSIN

CITY           SKY/WX    TMP DP  RH WIND       PRES   REMARKS
WAUSAU         CLOUDY     7  -2  66 NW12      29.97R WCI  -8
MOSINEE        CLOUDY     5   0  78 NW10      29.98R WCI -10
MARSHFIELD     MOCLDY     1  -7  68 NW12      29.99R WCI -16
STEVENS POINT  FLURRIES   5  -1  75 NW5       29.98S WCI  -4
WAUPACA        CLOUDY    10  -3  54 N10       30.00R WCI  -3
WAUTOMA        NOT AVBL
WISC RAPIDS    CLOUDY     6  -3  66 NW9       30.02R WCI  -8
CAMP DOUGLAS   NOT AVBL
$$

WIZ011>013-019>022-031-037>040-048>050-101400-
NORTHEAST WISCONSIN

CITY           SKY/WX    TMP DP  RH WIND       PRES   REMARKS
ANTIGO         CLOUDY     4  -5  68 N17       29.93R WCI -16
SHAWANO        CLOUDY    10  -3  54 NW7       29.99R WCI  -1
OCONTO         PTCLDY     6  -6  58 NW9       29.98R WCI  -8
STURGEON BAY   CLEAR      5  -8  56 NW15G23   29.96R WCI -13
GREEN BAY      CLEAR      2  -6  69 NW7       29.98R WCI -11
MANITOWOC      NOT AVBL
APPLETON       PTCLDY     7  -8  51 NW12      29.95R WCI  -9
CLINTONVILLE   CLOUDY    10  -6  48 N12       29.98R WCI  -4
OSHKOSH        CLOUDY     8  -4  58 N13       29.98R WCI  -8
$$

WIZ032>034-041-042-053>061-101400-
SOUTHWEST WISCONSIN

CITY           SKY/WX    TMP DP  RH WIND       PRES   REMARKS
LA CROSSE      PTCLDY    -1  -9  68 N6        30.11R WCI -13
SPARTA         CLOUDY   -12 -16  83 CALM      30.08R
VIROQUA        PTCLDY    -2  -8  76 W8        30.02R WCI -17
BOSCOBEL       CLOUDY    -4 -10  75 CALM      30.10S
PRAIRIE DU CHI CLOUDY     3  -6  67 NW3       30.11S
PLATTEVILLE    CLOUDY     2  -4  75 W6        30.04R WCI  -9
$$

WIZ056-057-062-063-064-067-068-101400-
SOUTH CENTRAL WISCONSIN

CITY           SKY/WX    TMP DP  RH WIND       PRES   REMARKS
REEDSBURG      PTCLDY     0  -6  74 NW7       30.04R WCI -13
BARABOO/DELLS  MOCLDY     1  -6  75 W5        30.02R WCI  -9
LONE ROCK      NOT AVBL
MINERAL POINT  PTCLDY     3  -4  72 NW6       30.01R WCI  -8
MADISON        MOCLDY     4  -3  73 W9        30.02R WCI -10
MIDDLETON      CLEAR      4  -3  73 W8        30.02R WCI  -9
WATERTOWN      CLOUDY     9   2  73 NW9       29.97R WCI  -4
MONROE         CLEAR      3  -2  78 NW10      30.00R WCI -12
JANESVILLE     MOCLDY     9   1  72 NW9       30.01R WCI  -5
$$

WIZ051-052-058>065-066-070>072-101400-
SOUTHEAST WISCONSIN

CITY           SKY/WX    TMP DP  RH WIND       PRES   REMARKS
MILWAUKEE      PTCLDY     9   0  67 NW9       29.97S WCI  -4
WAUKESHA       MOCLDY     5  -2  72 NW9       29.97R WCI  -9
MILWAUKEE/TIMM CLEAR      7  -2  66 NW6       29.98R WCI  -3
RACINE         CLEAR      8  -1  66 NW3       29.98F
BURLINGTON     PTCLDY     3  -3  75 NW6       29.97R WCI  -8
KENOSHA        CLEAR      8  -1  66 NW7       29.97S WCI  -3
FOND DU LAC    CLOUDY     9  -2  61 NW10      29.98R WCI  -5
SHEBOYGAN      PTCLDY     6  -5  60 NW10      29.96R WCI  -9
WEST BEND      PTCLDY     9  -2  61 CALM      29.95S
JUNEAU         CLOUDY     9  -1  64 NW6G16    29.98R WCI  -1
$$

LSZ147-162-101400-
LAKE SUPERIOR

STATION/POSITION TIME  TEMP    WIND        PRES    WAVE
                       AIR SEA DIR/SP/G            HT/PER
                 (UTC) (F)     (DEG/KT/KT) (MB)    (FT/S)
DEVILS ISLAND    1200    4      10/  7/ 10 1021.2R
PORT WING        1200    5     350/  7/ 12 1020.0
SAXON HARBOR     1200    8                 1017.6R
$$

LMZ867-665-643>646-101400-
LAKE MICHIGAN

STATION/POSITION TIME  TEMP    WIND        PRES    WAVE
                       AIR SEA DIR/SP/G            HT/PER
                 (UTC) (F)     (DEG/KT/KT) (MB)    (FT/S)
CHAMBERS ISLAND  1200    8     300/ 14/ 21 1013.5S
ALGOMA LAKESHORE 1211          320/  9/ 13   N/A
KEWAUNEE LAKESHO 1200    7     310/ 11/ 16 1013.4R
SHEBOYGAN LAKESH 1200    9     320/ 15/ 18 1016.0R
PORT WASHINGTON  1240    9     320/  6/ 13 1015.9R
MILWAUKEE LAKESH 1210   11     300/  7/  8   N/A
KENOSHA   LAKESH 1200   10     300/  9/ 14 1015.2R
$$

TC  - TEMPERATURE IN CELSIUS
VSB - VISIBILITY IN STATUTE MILES
WCI - WIND CHILL INDEX
HX  - HEAT INDEX




USA.gov is the U.S. government's official web portal to all federal, state and local government web resources and services.